Weather History for Dothan, AL

Change the Weather History Date:

Sunday, January 20, 2013

  Actual Average Record
Temperature  
Mean Temperature 55 °F 49 °F  
Max Temperature 66 °F 60 °F 77 °F (1951)
Min Temperature 43 °F 38 °F 14 °F (1940)
Degree Days  
Heating Degree Days 10 16  
Month to date heating degree days 177 331  
Since 1 July heating degree days 816 1044  
Growing Degree Days 4 (Base 50)    
Moisture  
Dew Point 40 °F    
Average Humidity 67    
Maximum Humidity 90    
Minimum Humidity 35    
Precipitation  
Precipitation 0.00 in 0.13 in 1.60 in (1963)
Month to date precipitation 0.15 2.65  
Year to date precipitation 0.15 2.65  
Sea Level Pressure  
Sea Level Pressure 30.22 in    
Wind  
Wind Speed 2 mph (NNW)    
Max Wind Speed 9 mph    
Max Gust Speed -    
Visibility 10 miles    
Events      
T = Trace of Precipitation, MM = Missing Value Source: NWS Daily Summary

Daily Weather History Graph

Daily Weather History Graph

Search for Another Location

Airport:

Trip Planner

Search our weather history database for the weather conditions in past years. The results will help you decide how hot, cold, wet, or windy it might be!

Date:

Astronomy

Jan. 20, 2013 Rise Set
Actual Time 6:39 AM CST 5:06 PM CST
Civil Twilight 6:13 AM CST 5:32 PM CST
Nautical Twilight 5:44 AM CST 6:01 PM CST
Astronomical Twilight 5:15 AM CST 6:30 PM CST
Moon 12:05 PM CST (1/20) 1:13 AM CST (1/20)
Length of Visible Light 11h 18m
Length of Day
10h 26m
Waxing Gibbous, 66% of the Moon is Illuminated
Jan 20
Waxing Gibbous
Jan 26
Full
Feb 3
Last Quarter
Feb 10
New
Feb 17
First Quarter

Hourly Weather History & Observations

Time (CST) Temp. Windchill Dew Point Humidity Pressure Visibility Wind Dir Wind Speed Gust Speed Precip Events Conditions
12:53 AM 53.1 °F - 44.1 °F 71% 30.26 in 10.0 mi Calm Calm - N/A   Overcast
1:53 AM 51.1 °F - 45.0 °F 80% 30.27 in 10.0 mi NNW 5.8 mph - N/A   Mostly Cloudy
2:53 AM 46.0 °F - 42.1 °F 86% 30.27 in 10.0 mi Calm Calm - N/A   Scattered Clouds
3:53 AM 46.0 °F - 43.0 °F 89% 30.25 in 10.0 mi Calm Calm - N/A   Clear
4:53 AM 45.0 °F 40.1 °F 42.1 °F 90% 30.26 in 10.0 mi NW 9.2 mph - N/A   Clear
5:53 AM 44.1 °F - 41.0 °F 89% 30.27 in 10.0 mi Calm Calm - N/A   Clear
6:53 AM 43.0 °F - 39.9 °F 89% 30.28 in 10.0 mi Calm Calm - N/A   Clear
7:53 AM 50.0 °F - 43.0 °F 77% 30.29 in 10.0 mi NNW 5.8 mph - N/A   Clear
8:53 AM 54.0 °F - 42.1 °F 64% 30.29 in 10.0 mi NNW 8.1 mph - N/A   Clear
9:53 AM 59.0 °F - 42.1 °F 53% 30.29 in 10.0 mi NNW 8.1 mph - N/A   Clear
10:53 AM 62.1 °F - 39.9 °F 44% 30.25 in 10.0 mi North 8.1 mph - N/A   Clear
11:53 AM 63.0 °F - 39.0 °F 41% 30.21 in 10.0 mi NNE 5.8 mph - N/A   Clear
12:53 PM 63.0 °F - 39.0 °F 41% 30.18 in 10.0 mi Calm Calm - N/A   Clear
1:53 PM 64.9 °F - 37.0 °F 36% 30.17 in 10.0 mi Variable 3.5 mph - N/A   Clear
2:53 PM 64.0 °F - 36.0 °F 35% 30.15 in 10.0 mi Calm Calm - N/A   Clear
3:53 PM 64.0 °F - 37.0 °F 37% 30.15 in 10.0 mi Calm Calm - N/A   Clear
4:53 PM 62.1 °F - 37.9 °F 41% 30.16 in 10.0 mi NW 3.5 mph - N/A   Clear
5:53 PM 54.0 °F - 39.9 °F 59% 30.17 in 10.0 mi Calm Calm - N/A   Clear
6:53 PM 48.0 °F - 42.1 °F 80% 30.17 in 10.0 mi Calm Calm - N/A   Clear
7:53 PM 48.0 °F - 41.0 °F 77% 30.18 in 10.0 mi Calm Calm - N/A   Clear
8:53 PM 46.9 °F - 39.9 °F 77% 30.19 in 10.0 mi Calm Calm - N/A   Clear
9:53 PM 46.0 °F - 39.9 °F 79% 30.18 in 10.0 mi Calm Calm - N/A   Clear
10:53 PM 44.1 °F - 39.0 °F 82% 30.17 in 10.0 mi Calm Calm - N/A   Clear
11:53 PM 44.1 °F - 39.0 °F 82% 30.16 in 10.0 mi Calm Calm - N/A   Clear